{"data":{"norad_id":67099,"intl_designator":"2025-298AA","name":"STARLINK-36193","alt_names":[],"object_type":"PAYLOAD","status":"ACTIVE","operator":null,"country":"US","launch_date":"2025-12-14","launch_site_code":"AFWTR","launch_vehicle":null,"mission":null,"orbit_class":"UNKNOWN","rcs_meters":null,"size_class":null,"mass_kg":null,"dimensions":null,"purposes":["comms"],"wikipedia_slug":null,"has_3d_model":false,"image_url":null,"decayed_at":null,"tle_current":{"epoch":"2026-05-25T03:37:30.396000Z","epoch_age_seconds":61905,"freshness":"FRESH","line1":"1 67099U 25298AA  26145.15104625  .00003828  00000+0  32849-3 0  9998","line2":"2 67099  70.0013 181.5565 0003696 270.4940  89.5796 14.98323283 24671","mean_motion":14.98323283,"eccentricity":0.0003696,"inclination_deg":70.0013,"raan_deg":181.5565,"arg_perigee_deg":270.494,"mean_anomaly_deg":89.5796,"bstar":0.00032849,"rev_number":2467,"period_min":96.107429974443,"perigee_km":569.50786382066,"apogee_km":574.6454617602,"semimajor_km":6950.2136627904,"source":"CELESTRAK","updated_at":"2026-05-25T13:38:21.471624Z"}}}